TimeEDT,TemperatureF,Dew PointF,Humidity,Sea Level PressureIn,VisibilityMPH,Wind Direction,Wind SpeedMPH,Gust SpeedMPH,PrecipitationIn,Events,Conditions,WindDirDegrees,DateUTC
12:53 AM,39.9,30.9,70,29.94,10.0,SE,3.5,-,N/A,,Overcast,140,2013-03-31 04:53:00
1:53 AM,39.0,30.9,73,29.91,10.0,Calm,Calm,-,N/A,,Overcast,0,2013-03-31 05:53:00
2:53 AM,39.0,30.9,73,29.87,10.0,Calm,Calm,-,N/A,,Overcast,0,2013-03-31 06:53:00
3:53 AM,39.9,30.9,70,29.84,9.0,SE,3.5,-,N/A,,Overcast,140,2013-03-31 07:53:00
4:53 AM,39.9,30.9,70,29.81,10.0,Calm,Calm,-,N/A,,Overcast,0,2013-03-31 08:53:00
5:53 AM,41.0,30.9,67,29.78,10.0,SSE,3.5,-,N/A,,Overcast,160,2013-03-31 09:53:00
6:53 AM,42.1,32.0,67,29.77,10.0,SSE,5.8,-,N/A,,Overcast,160,2013-03-31 10:53:00
7:53 AM,42.1,33.1,70,29.77,10.0,South,4.6,-,N/A,,Overcast,190,2013-03-31 11:53:00
8:53 AM,45.0,33.1,63,29.75,10.0,South,8.1,-,0.00,,Overcast,190,2013-03-31 12:53:00
9:53 AM,44.1,36.0,73,29.74,7.0,SW,8.1,-,0.01,Rain,Light Rain,220,2013-03-31 13:53:00
10:53 AM,44.1,37.9,79,29.73,8.0,SSW,12.7,-,0.02,,Overcast,210,2013-03-31 14:53:00
11:31 AM,44.6,39.2,81,29.72,7.0,SSW,11.5,-,N/A,,Overcast,210,2013-03-31 15:31:00
11:53 AM,46.0,41.0,83,29.72,7.0,SSW,11.5,-,N/A,,Overcast,210,2013-03-31 15:53:00
12:00 PM,46.4,39.2,76,29.72,7.0,SW,11.5,-,N/A,,Overcast,220,2013-03-31 16:00:00
12:40 PM,48.2,42.8,82,29.71,8.0,SW,10.4,19.6,N/A,,Overcast,230,2013-03-31 16:40:00
12:53 PM,50.0,42.1,74,29.71,8.0,SW,11.5,-,N/A,,Overcast,230,2013-03-31 16:53:00
1:15 PM,50.0,41.0,71,29.70,9.0,SW,16.1,-,N/A,,Mostly Cloudy,230,2013-03-31 17:15:00
1:53 PM,54.0,39.0,57,29.69,9.0,SW,15.0,21.9,N/A,,Mostly Cloudy,230,2013-03-31 17:53:00
2:00 PM,53.6,39.2,58,29.68,10.0,SW,13.8,20.7,N/A,,Mostly Cloudy,230,2013-03-31 18:00:00
2:29 PM,55.4,37.4,51,29.67,10.0,SW,15.0,-,N/A,,Mostly Cloudy,230,2013-03-31 18:29:00
2:53 PM,57.9,37.0,46,29.67,10.0,WSW,13.8,-,N/A,,Mostly Cloudy,250,2013-03-31 18:53:00
3:53 PM,59.0,33.1,38,29.65,10.0,West,15.0,28.8,N/A,,Scattered Clouds,260,2013-03-31 19:53:00
4:53 PM,60.1,28.9,31,29.64,10.0,WSW,16.1,26.5,N/A,,Scattered Clouds,250,2013-03-31 20:53:00
5:53 PM,60.1,28.0,30,29.63,10.0,SW,17.3,26.5,N/A,,Mostly Cloudy,230,2013-03-31 21:53:00
6:53 PM,57.0,26.1,30,29.63,10.0,West,16.1,24.2,N/A,,Overcast,260,2013-03-31 22:53:00
7:53 PM,55.9,28.0,34,29.64,10.0,West,17.3,24.2,N/A,,Mostly Cloudy,260,2013-03-31 23:53:00
8:53 PM,54.0,28.9,38,29.65,10.0,WSW,15.0,-,N/A,,Mostly Cloudy,250,2013-04-01 00:53:00
9:53 PM,50.0,32.0,50,29.67,10.0,West,9.2,-,N/A,,Mostly Cloudy,270,2013-04-01 01:53:00
10:53 PM,48.0,35.1,61,29.68,10.0,West,9.2,-,N/A,,Mostly Cloudy,260,2013-04-01 02:53:00
11:53 PM,46.0,30.9,56,29.70,10.0,West,12.7,23.0,N/A,,Mostly Cloudy,270,2013-04-01 03:53:00